#timestamp,LO_Frequency,Hit 
1504987215.8,286047005.5,N
1504987235.7,286047008.3,P
1504987255.5,286047005.1,N
1504987275.3,286047005.2,N
1504987295.2,286047002.1,N
1504987315.9,286047002.0,N
1504987335.7,286047004.4,N
1504987355.6,286047004.4,N
1504987375.4,286047002.0,N
1504987395.2,286047002.1,N
1504987415.1,286047002.3,N
1504987416.0,286047002.3,N
1504987435.8,286046999.7,N
1504987455.6,286047003.3,N
1504987475.5,286047003.3,N
1504987495.3,286047004.3,N
1504987515.1,286047001.3,N
1504987535.8,286047003.8,N
1504987555.7,286047003.1,N
1504987575.5,286047003.4,N
1504987595.3,286047004.2,N
1504987615.2,286047004.1,N
1504987635.9,286047004.0,N
1504987655.7,286047002.6,N
1504987675.6,286047000.1,N
1504987695.4,286047002.0,N
1504987715.2,286047004.2,N
1504987735.1,286047004.4,N
1504987736.0,286047004.4,N
1504987755.8,286047003.9,N
1504987775.6,286047005.6,P
1504987795.5,286047000.5,N
1504987815.3,286047001.2,N
1504987835.1,286047002.4,N
1504987855.9,286047002.3,N
1504987875.7,286046999.0,N
1504987895.5,286047000.0,N
1504987915.3,286047000.2,N
1504987935.2,286047002.5,N
1504987955.0,286047002.2,N
1504987955.9,286047002.2,N
1504987975.7,286047000.1,N
1504987995.6,286046999.7,N
1504988015.4,286047003.5,N
1504988035.2,286047005.1,N
1504988055.1,286047005.1,N
1504988056.0,286047005.1,N
1504988075.8,286047007.5,P
1504988095.6,286047003.5,N
1504988115.5,286047005.6,N
1504988135.3,286047006.2,P
1504988155.2,286047002.9,P
1504988175.9,286047004.8,P
1504988195.7,286047002.9,N
1504988215.5,286047001.5,N
1504988235.4,286047000.5,N
1504988255.2,286047000.2,N
1504988275.0,286046999.8,N
1504988275.9,286046999.8,N
1504988295.8,286046999.3,N
1504988315.6,286046996.5,N
1504988335.4,286047001.1,N
1504988355.3,286047000.5,N
1504988375.1,286047002.0,N
1504988376.0,286047002.0,N
1504988395.8,286047001.7,N
1504988415.7,286047002.6,N
1504988435.5,286046999.3,N
1504988455.3,286046999.2,N
1504988475.2,286047000.8,N
1504988495.9,286047000.1,N
1504988515.7,286047002.1,N
1504988535.5,286047001.6,N
1504988555.4,286047004.2,N
1504988575.2,286047002.3,N
1504988595.0,286047000.7,N
1504988595.9,286047000.7,N
1504988615.8,286046998.1,N
1504988635.6,286047002.8,N
1504988655.4,286047000.9,N
1504988675.3,286046999.7,N
1504988695.1,286046999.8,N
1504988696.0,286046999.8,N
1504988715.8,286047002.7,N
1504988735.7,286047001.8,N
1504988755.5,286047002.8,N
1504988775.3,286047004.4,N
1504988795.1,286047001.6,N
1504988815.9,286047002.5,N
1504988835.7,286047000.7,N
1504988855.5,286047003.2,N
1504988875.4,286047006.0,P
1504988895.2,286047003.8,N
1504988915.0,286047001.8,N
1504988915.9,286047001.8,N
1504988935.8,286047004.9,N
1504988955.6,286047006.4,P
1504988975.5,286047000.1,N
1504988995.3,286047002.8,N
1504989015.1,286046998.9,N
1504989035.8,286047001.2,N
1504989055.7,286047001.2,N
1504989075.5,286046999.9,N
1504989095.3,286047001.3,N
1504989115.2,286047002.5,N
1504989135.9,286046999.7,N
1504989155.7,286046998.7,N
1504989175.6,286046996.5,N
1504989195.4,286047000.5,N
1504989215.2,286046999.5,N
1504989235.1,286046996.6,N
1504989236.0,286046996.6,N
1504989255.8,286047001.2,N
1504989275.6,286047000.1,N
1504989295.5,286046998.4,N
1504989315.3,286046999.8,N
1504989335.1,286047002.1,N
1504989355.8,286047002.9,N
1504989375.7,286047004.1,N
1504989395.5,286047004.5,N
1504989415.3,286047006.9,N
1504989435.2,286047007.6,N
1504989455.9,286047007.6,N
1504989475.7,286047007.1,N
1504989495.6,286047004.5,N
1504989515.4,286047006.8,N
1504989535.2,286047008.7,N
1504989555.1,286047010.3,N
1504989556.0,286047010.3,N
1504989575.8,286047006.6,N
1504989595.6,286047005.8,N
1504989615.5,286047005.8,N
1504989635.3,286047005.9,N
1504989655.1,286047002.9,N
1504989675.9,286047001.4,N
1504989695.7,286046999.8,N
1504989715.5,286047002.4,N
1504989735.3,286047001.7,N
1504989755.2,286047001.0,N
1504989775.0,286047001.8,N
1504989775.9,286047001.8,N
1504989795.7,286047002.9,N
1504989815.6,286047003.5,N
1504989835.4,286047004.0,N
1504989855.2,286047001.4,N
1504989875.1,286047003.8,N
1504989876.0,286047003.8,N
1504989895.8,286047002.5,N
1504989915.6,286046999.7,N
1504989935.5,286047002.5,N
1504989955.3,286047003.5,N
1504989975.1,286047004.2,N
1504989995.9,286047001.4,N
1504990015.7,286047005.1,N
1504990035.5,286047008.8,P
1504990055.4,286047004.3,N
1504990075.2,286047005.4,N
1504990095.0,286047006.0,P
1504990095.9,286047006.0,P
1504990115.8,286046999.9,N
1504990135.6,286047002.7,N
1504990155.4,286047000.4,N
1504990175.3,286047002.5,N
1504990195.1,286047003.7,N
1504990196.0,286047003.7,N
1504990215.8,286047002.7,N
1504990235.7,286047000.6,N
1504990255.5,286046998.1,N
1504990275.3,286047000.1,N
1504990295.2,286047004.4,N
1504990315.9,286047005.9,N
1504990335.7,286047001.3,N
1504990355.5,286047002.8,N
1504990375.4,286047002.0,N
1504990395.2,286047005.6,N
1504990415.0,286047001.7,N
1504990415.9,286047001.7,N
1504990435.8,286047002.5,N
1504990455.6,286047000.7,N
1504990475.4,286046998.3,N
1504990495.3,286046998.6,N
1504990515.1,286047000.5,N
1504990516.0,286047000.5,N
1504990535.8,286046998.3,N
1504990555.7,286046997.4,N
1504990575.5,286046999.1,N
1504990595.3,286047001.1,N
1504990615.2,286046998.8,N
1504990635.9,286046998.2,N
1504990655.7,286046996.9,N
1504990675.5,286046997.1,N
1504990695.4,286047000.8,N
1504990715.2,286047001.0,N
1504990735.0,286046998.2,N
1504990735.9,286046998.2,N
1504990755.8,286046999.0,N
1504990775.6,286047002.3,N
1504990795.4,286047002.6,N
